Location: Alphen
(52.1351°N, 4.6549°E)
Time: 00:22:54
(UTC+00:00)

Daily predictions for brighter satellites

Satellite Brightness Start Highest point End
(mag) Time Altitude Azimuth Time Altitude Azimuth Time Altitude Azimuth
USA 215 4.4 02:52:03 10° ENE 02:55:54 37° ENE 02:55:54 37° ENE
Cosmos 1943 Rocket 4.3 03:09:37 21° NNE 03:09:39 21° NNE 03:13:56 10° E
Cosmos 2369 Rocket 4.4 03:18:44 17° NNE 03:19:28 18° NNE 03:23:13 10° ENE
Cosmos 2219 Rocket 3.5 03:41:52 33° NNE 03:41:52 33° NNE 03:44:53 10° NNE
Cosmos 2237 Rocket 3.4 03:43:07 36° ESE 03:43:32 37° ESE 03:48:43 10° NE
BREEZE-M DEB (TANK) 4.3 03:55:49 64° SSW 03:55:49 64° SSW 04:00:42 10° SE
Cosmos 2333 Rocket 3.2 04:04:35 38° NNE 04:04:35 38° NNE 04:08:07 10° NNE
FENGYUN 3A 4.0 03:59:35 10° NNE 04:04:53 61° E 04:04:53 61° E
Lacrosse 4 Rocket 3.6 04:04:27 22° ESE 04:05:00 23° ESE 04:08:26 10° ENE
Cosmos 1763 Rocket 4.5 04:07:15 41° NNE 04:07:15 41° NNE 04:10:41 10° NNE
Cosmos 2297 4.3 04:08:14 45° NNE 04:09:27 53° NE 04:15:04 10° SE
Cosmos 2360 Rocket 3.8 04:15:25 23° N 04:15:25 23° N 04:18:11 10° NNE
Cosmos 1464 Rocket 4.0 04:13:47 33° S 04:16:41 74° E 04:22:53 10° NNE
SL-16 R/B 4.1 04:18:48 17° N 04:18:48 17° N 04:21:09 10° NNE
Cosmos 841 Rocket 3.8 04:16:53 59° ESE 04:17:04 60° ESE 04:22:10 10° NNE
Cosmos 1980 3.9 04:17:07 61° SSE 04:17:45 66° ESE 04:23:22 10° NE
Cosmos 2322 Rocket 4.0 04:20:13 18° N 04:20:13 18° N 04:22:35 10° NNE
Meteor 1-21 Rocket 4.2 04:17:52 68° N 04:18:38 82° ENE 04:24:29 10° SSE
Meteor 2-13 Rocket 4.5 04:13:18 10° N 04:19:31 78° ENE 04:25:40 10° SSE
MOS 1 Rocket 4.4 04:15:58 10° SE 04:20:26 42° ENE 04:23:13 20° N
COSMOS 2428 3.2 04:25:09 48° N 04:25:09 48° N 04:29:33 10° NNE
Cosmos 1072 Rocket 4.4 04:22:08 43° S 04:24:24 88° ESE 04:30:49 10° N
SKYMED 2 4.5 04:20:39 10° SSE 04:23:56 46° ESE 04:23:56 46° ESE
Cosmos 1980 Rocket 4.4 04:30:22 12° NNW 04:30:26 12° N 04:32:37 10° NNE
ATLAS CENTAUR R/B 2.8 04:31:44 30° ESE 04:31:44 30° ESE 04:34:49 10° ENE
METEOR-M 4.2 04:26:46 10° NNE 04:32:10 77° ESE 04:34:34 34° S
Cosmos 2150 Rocket 4.2 04:33:50 47° N 04:35:23 74° ENE 04:40:48 10° SSE
Cosmos 1092 Rocket 4.3 04:30:28 10° N 04:36:36 64° ENE 04:42:44 10° SSE
ALOS 3.1 04:34:53 10° N 04:37:53 39° N 04:37:53 39° N
NOSS 3-3 (A) 4.4 04:37:23 41° NW 04:40:28 89° SW 04:48:46 10° SE
NOSS 3-3 (C) 4.4 04:37:28 40° NW 04:40:34 89° SW 04:48:52 10° SE
Cosmos 1602 Rocket 3.7 04:40:25 61° NNE 04:41:04 72° ENE 04:45:31 10° SSE
USA 215 3.2 04:35:11 10° ENE 04:41:40 69° NNW 04:43:15 52° WNW
ADEOS 3.6 04:37:18 10° NNE 04:42:34 76° ESE 04:47:41 11° SSW
Cosmos 1908 4.0 04:45:31 47° NE 04:45:31 47° NE 04:48:28 10° NNE
GEOS 3 Rocket 3.9 04:39:35 10° ESE 04:44:56 68° NE 04:46:53 40° NNW
USA 307 4.2 04:44:42 31° SSE 04:45:25 34° SE 04:49:15 10° ENE
Cosmos 1328 4.3 04:46:59 56° SE 04:46:59 56° SE 04:50:13 10° SSE
NOSS 0 Rocket 3.8 04:45:40 53° SW 04:47:08 75° NW 04:53:20 10° NNE
Nadezhda 4 Rocket 3.8 04:41:01 10° NNW 04:47:09 74° W 04:53:14 10° S
CZ-2C R/B 4.0 04:42:21 10° N 04:44:43 25° NNW 04:44:43 25° NNW
USA 305 4.0 04:50:49 34° S 04:51:40 38° SE 04:55:36 10° ENE
Cosmos 2098 Rocket 4.4 04:46:37 10° N 04:52:27 51° ENE 04:57:04 10° SSE
USA 308 4.0 04:53:18 32° S 04:54:22 38° SE 04:58:21 10° ENE
Cosmos 1943 Rocket 2.4 04:51:10 26° NNW 04:54:27 70° ENE 05:00:06 10° SE
Cosmos 1400 Rocket 3.1 04:53:19 26° S 04:55:33 71° E 04:59:41 10° NNE
SL-4 R/B 2.8 04:55:30 38° SSE 04:55:47 39° SSE 04:59:33 10° E
Cosmos 2034 Rocket 3.9 04:51:55 10° SSW 04:58:18 81° W 05:04:42 10° N
Meteor 1-16 Rocket 4.3 04:53:18 10° S 04:59:14 89° ESE 05:05:12 10° NNE
Cosmos 1570 Rocket 3.8 04:57:36 40° SW 04:59:31 80° WNW 05:04:50 10° NNE
SJ-12 3.9 04:56:42 10° NNE 05:00:52 82° E 05:04:12 16° SSW
Cosmos 2298 Rocket 3.9 05:00:29 44° NW 05:02:06 69° WSW 05:07:24 10° SSE
Cosmos 540 Rocket 3.4 05:01:40 56° W 05:02:17 61° WNW 05:07:26 10° NNE
CZ-2C R/B 4.0 04:58:13 10° SE 05:03:06 39° ENE 05:08:06 10° N
USA 306 3.8 05:02:36 33° S 05:03:52 44° SSE 05:07:55 10° ENE
Cosmos 2369 Rocket 2.8 05:00:31 17° NNW 05:04:48 54° NE 05:10:17 10° SE
Cosmos 1125 Rocket 3.4 05:01:52 27° NNW 05:04:54 89° WSW 05:10:14 10° SSE
Envisat 4.4 05:00:07 10° NNE 05:04:55 40° E 05:09:40 10° SSE
NOSS 3-2 (A) 4.0 05:00:28 10° SSW 05:06:00 56° SE 05:12:27 10° NE
Cosmos 1814 Rocket 3.8 05:03:50 33° SW 05:06:12 78° WNW 05:11:22 10° NNE
Cosmos 1634 Rocket 4.4 05:02:34 10° S 05:08:37 62° E 05:14:44 10° NNE
CZ-4B R/B 3.0 05:06:20 10° NNE 05:09:59 66° ESE 05:13:43 10° S
Cosmos 1461 3.8 05:11:24 38° NW 05:11:26 38° NW 05:15:53 10° NE
CZ-4B R/B 4.0 05:07:19 10° N 05:11:48 65° WNW 05:13:34 34° SW
COSMO-SKYMED 1 2.8 05:08:47 10° S 05:12:33 49° WSW 05:12:33 49° WSW
PSLV R/B 3.8 05:10:54 10° SSE 05:15:03 84° WSW 05:17:58 20° NNW
Cosmos 2228 4.0 05:14:39 10° SSE 05:18:42 47° E 05:22:48 10° NNE
SL-16 R/B 2.5 05:13:42 10° SSW 05:19:18 68° ESE 05:24:58 10° NE
NOSS 3-2 (C) 4.5 05:14:22 10° SSW 05:19:45 44° ESE 05:25:55 10° NE
Cosmos 1953 Rocket 4.3 05:17:37 10° N 05:21:54 53° ENE 05:26:09 10° SSE
Cosmos 1544 Rocket 4.3 05:23:27 32° NW 05:23:27 32° NW 05:26:27 10° N
Cosmos 2026 Rocket 3.9 05:16:29 10° NNW 05:22:53 82° W 05:29:16 10° S
Cosmos 972 Rocket 4.3 05:17:40 10° SSW 05:23:51 82° ESE 05:29:21 10° NNE
Cosmos 2219 Rocket 3.2 05:23:36 25° NW 05:23:55 26° NW 05:28:34 10° NNE
ERS-2 2.5 05:22:07 10° S 05:25:10 44° SW 05:25:10 44° SW
CENTAUR R/B 3.3 05:21:09 10° SSW 05:26:57 53° ESE 05:33:52 10° NE
H-2A R/B 2.7 05:23:13 10° NNE 05:26:58 80° ESE 05:30:43 10° S
Cosmos 2237 Rocket 2.4 05:24:59 30° WSW 05:27:29 50° NW 05:33:03 10° NNE
Cosmos 2208 Rocket 4.1 05:23:25 17° SW 05:27:34 61° WNW 05:32:55 10° NNE
Cosmos 1953 3.9 05:32:23 20° NNW 05:32:23 20° NNW 05:34:02 10° N
Cosmos 1656 Rocket 4.3 05:25:56 10° NNW 05:31:12 51° NE 05:36:28 10° SE
Meteor PRIRODA 3.4 05:28:00 10° N 05:31:39 76° WNW 05:35:16 10° SSW
Cosmos 1606 Rocket 4.0 05:30:53 10° S 05:35:08 62° E 05:39:26 10° NNE
Lacrosse 4 Rocket 1.5 05:40:48 23° WSW 05:43:20 58° NW 05:47:42 10° NNE
Meteor 1-11 4.3 05:38:17 10° NNW 05:43:42 53° W 05:49:07 10° S
Cosmos 1300 2.5 05:43:13 10° SSW 05:47:01 78° WNW 05:50:52 10° N
Cosmos 2333 Rocket 3.6 05:46:36 19° NW 05:47:53 20° NNW 05:52:02 10° NNE
SAR-Lupe-4 4.2 05:46:02 10° SSW 05:49:19 34° W 05:50:19 29° WNW
deb Chang Zheng 4 3.7 05:45:15 10° N 05:49:21 48° WNW 05:53:24 10° SW
Cosmos 1315 Rocket 2.6 05:47:40 10° SSW 05:51:35 85° WNW 05:55:32 10° NNE
Cosmos 1655 Rocket 4.3 05:45:23 10° N 05:51:39 71° ENE 05:57:56 10° SSE
Meteor 1-31 Rocket 3.8 05:49:24 10° N 05:52:39 25° WNW 05:52:39 25° WNW
Cosmos 2297 4.4 05:50:12 20° NW 05:53:26 34° WSW 05:58:33 10° S
Cosmos 1346 Rocket 3.4 05:54:23 18° NW 05:56:50 34° W 06:00:28 10° SSW
MOS 1 Rocket 4.1 05:54:41 10° SSW 05:58:49 29° W 06:02:31 11° NW
Cosmos 2360 Rocket 4.1 05:57:10 11° NW 05:59:06 13° NNW 06:01:45 10° NNE
Cosmos 841 Rocket 4.4 05:57:01 20° W 05:59:20 28° NW 06:03:48 10° N
NOSS 5 (C) 4.4 05:57:05 10° SW 06:01:07 72° NW 06:04:20 10° NE
Cosmos 1758 Rocket 4.2 05:57:34 10° NNW 06:01:39 35° W 06:05:42 10° SSW
USA 238 DEB 3.7 05:55:02 10° SW 06:01:41 88° NW 06:08:44 10° NE
USA 238 3.7 05:55:09 10° SW 06:01:47 89° NW 06:08:49 10° NE
Cosmos 836 Rocket 4.4 05:56:41 10° SSW 06:01:57 84° WNW 06:07:13 10° NNE
Cosmos 1980 4.5 05:59:00 18° W 06:02:16 32° NW 06:07:19 10° NNE
FALCON 9 DEB 3.1 06:01:26 25° W 06:03:17 75° N 06:06:42 10° E
SL-16 R/B 4.3 06:01:46 10° NNW 06:03:33 11° N 06:05:20 10° NNE
Cosmos 2322 Rocket 4.3 06:02:56 10° NNW 06:04:40 11° N 06:06:24 10° N
Cosmos 1689 Rocket 3.7 06:05:55 10° SW 06:07:23 17° WSW 06:07:23 17° WSW
Cosmos 1441 Rocket 3.5 06:04:30 10° N 06:08:27 72° ENE 06:12:21 10° SSE
COSMOS 2428 4.2 06:07:11 16° WNW 06:09:26 19° NNW 06:13:27 10° NNE
ATLAS CENTAUR R/B 1.6 06:07:56 18° W 06:10:20 39° NW 06:13:51 10° NNE
SL-19 R/B 4.2 06:09:32 10° NNE 06:13:23 77° ESE 06:16:43 10° SSW
BREEZE M DEB (TANK) 3.9 06:12:34 10° SW 06:14:54 33° SE 06:19:53 10° E
ALOS 4.0 06:13:53 10° NNW 06:16:12 14° NW 06:16:24 14° NW
MOS 1-B 4.4 06:10:25 10° NNE 06:16:14 85° ESE 06:22:01 10° SSW
Cosmos 1980 Rocket 4.4 06:14:24 10° NNW 06:17:09 13° NNE 06:19:55 10° NE
YAOGAN 6 3.0 06:13:41 10° N 06:17:12 42° WNW 06:20:43 10° SW
Cosmos 1892 2.7 06:13:32 10° NNW 06:17:22 64° W 06:21:11 10° S
Cosmos 1184 Rocket 3.4 06:14:39 10° N 06:17:54 59° ENE 06:21:07 10° SSE
Spot 2 3.8 06:13:57 10° NNE 06:18:01 83° WNW 06:22:06 10° SSW
Cosmos 1726 Rocket 3.5 06:15:08 10° SSW 06:19:25 63° WNW 06:23:44 10° N
Cosmos 2058 Rocket 3.1 06:16:59 10° S 06:21:24 88° ESE 06:25:53 10° N
Cosmos 1603 4.4 06:16:59 10° SSW 06:22:30 60° ESE 06:28:05 10° NE
FALCON 9 DEB 3.7 06:19:55 10° SW 06:22:56 48° SSE 06:25:55 10° E
GEOS 3 Rocket 4.5 06:18:24 10° S 06:23:15 34° WSW 06:27:59 11° WNW
USA 215 3.5 06:17:59 10° E 06:24:22 60° N 06:30:36 11° WNW
USA 307 2.9 06:20:56 10° WSW 06:25:11 87° NNW 06:29:26 10° ENE
CZ-4B DEB 4.2 06:21:43 10° NNE 06:27:17 70° WNW 06:32:48 10° SSW
In-Cosmos 22 Rocket 4.3 06:22:21 10° NNW 06:27:40 53° W 06:32:51 10° S
PSLV R/B 4.2 06:24:12 10° N 06:28:01 44° WNW 06:31:54 10° SW
Cosmos 2292 Rocket 3.4 06:26:48 10° NNW 06:29:33 33° W 06:32:35 10° SSW
Cosmos 1408 2.5 06:27:33 10° NNW 06:31:06 60° W 06:34:40 10° S
USA 305 2.9 06:27:12 10° WSW 06:31:27 83° NNW 06:35:43 10° ENE
Cosmos 2279 Rocket 4.1 06:25:29 10° SSW 06:31:38 59° WNW 06:37:51 10° N
FALCON 9 DEB 3.7 06:28:38 10° SW 06:31:41 50° SSE 06:34:44 10° E
Cosmos 1400 Rocket 4.5 06:29:57 10° W 06:32:31 16° WNW 06:35:08 10° NNW
Cosmos 2098 Rocket 4.4 06:28:18 10° NNW 06:33:07 27° W 06:37:07 10° SW
Okean O Rocket 1.7 06:28:56 10° NNE 06:33:20 85° E 06:37:41 10° SSW
USA 308 2.9 06:29:53 10° WSW 06:34:11 82° NNW 06:38:29 10° ENE
SL-4 R/B 2.0 06:31:16 10° W 06:35:09 82° S 06:39:23 10° E
SMAP 3.0 06:30:45 10° N 06:35:25 71° WNW 06:40:03 10° SSW
Cosmos 2263 4.5 06:31:45 10° NW 06:37:13 51° WSW 06:42:44 10° S
H-2A R/B 4.4 06:32:34 10° NNE 06:37:15 29° E 06:41:57 10° SSE
Cosmos 1943 Rocket 3.3 06:33:12 10° NW 06:37:43 25° WSW 06:42:12 10° SSW
H-2A R/B 2.7 06:35:08 10° N 06:39:37 64° WNW 06:44:04 10° SSW
Iridium 4 Rocket 4.0 06:36:20 10° S 06:42:12 81° E 06:48:07 10° N
Cosmos 1939 Rocket 3.0 06:38:23 10° NNE 06:42:20 76° ESE 06:46:11 10° S
CZ-2C R/B 3.1 06:38:27 10° SSW 06:43:24 40° W 06:48:29 10° NNW
USA 306 2.9 06:39:30 10° W 06:43:44 78° NNW 06:48:00 10° ENE
Envisat 3.5 06:39:16 10° N 06:43:55 36° WNW 06:48:32 10° SW
CZ-4B R/B 4.3 06:42:37 10° NNW 06:44:41 15° WNW 06:46:46 10° W
Cosmos 2369 Rocket 3.0 06:43:41 10° NW 06:48:36 32° WSW 06:53:30 10° SSW
Cosmos 1076 Rocket 3.5 06:44:51 10° NNW 06:49:09 87° W 06:53:23 10° S
Cosmos 773 Rocket 4.1 06:45:15 10° SSW 06:50:30 88° ESE 06:55:45 10° NNE
Cosmos 1633 4.1 06:50:58 10° N 06:54:17 36° ENE 06:57:35 10° SE
Meteor 2-10 Rocket 3.8 06:50:06 10° SSW 06:55:52 64° WNW 07:01:34 10° N
Cosmos 1697 Rocket 4.5 06:51:57 10° NNW 06:56:25 23° NE 07:00:51 10° E
NOSS 3-2 (A) 3.8 06:51:12 10° WSW 06:57:02 50° NNW 07:03:50 10° NE
